| time (UTC) | temp F | wind direction | speed knots | gust knots | rain 1hr in | rain 24hr in | rain mn in | humidity % | barometer mb |
| 20260505201203 | 56 | 213 | 7.0 | 11.3 | 0.00 | 0.04 | 0.04 | 48 | 1011.6 |
| 20260505194703 | 56 | 258 | 7.0 | 13.0 | 0.00 | 0.04 | 0.04 | 46 | 1011.8 |
| 20260505194203 | 56 | 233 | 7.8 | 11.3 | 0.00 | 0.04 | 0.04 | 48 | 1011.8 |
| 20260505193703 | 56 | 232 | 8.7 | 13.0 | 0.00 | 0.04 | 0.04 | 49 | 1011.9 |
| 20260505193203 | 55 | 238 | 6.1 | 11.3 | 0.00 | 0.04 | 0.04 | 50 | 1011.8 |
| 20260505190703 | 55 | 214 | 7.8 | 10.4 | 0.00 | 0.04 | 0.04 | 48 | 1012.1 |
| 20260505190203 | 55 | 236 | 5.2 | 8.7 | 0.00 | 0.04 | 0.04 | 50 | 1012.1 |
| 20260505185703 | 55 | 272 | 6.1 | 13.0 | 0.00 | 0.04 | 0.04 | 45 | 1012.1 |
| 20260505183703 | 55 | 220 | 5.2 | 8.7 | 0.00 | 0.04 | 0.04 | 50 | 1012.2 |
| 20260505181703 | 55 | 256 | 5.2 | 11.3 | 0.00 | 0.04 | 0.04 | 50 | 1012.4 |
| 20260505180703 | 55 | 226 | 6.1 | 11.3 | 0.00 | 0.04 | 0.04 | 46 | 1012.5 |
| 20260505180203 | 55 | 302 | 7.8 | 10.4 | 0.00 | 0.04 | 0.04 | 55 | 1012.6 |
| 20260505175702 | 54 | 245 | 6.1 | 8.7 | 0.00 | 0.04 | 0.04 | 48 | 1012.5 |
| 20260505175202 | 54 | 253 | 7.8 | 12.2 | 0.00 | 0.04 | 0.04 | 48 | 1012.5 |
| 20260505174703 | 54 | 264 | 5.2 | 10.4 | 0.00 | 0.04 | 0.04 | 50 | 1012.7 |
| 20260505173702 | 55 | 271 | 8.7 | 12.2 | 0.00 | 0.04 | 0.04 | 52 | 1012.8 |
| 20260505173203 | 54 | 269 | 6.1 | 13.0 | 0.00 | 0.04 | 0.04 | 53 | 1012.8 |
| 20260505172703 | 54 | 236 | 6.1 | 10.4 | 0.00 | 0.04 | 0.04 | 53 | 1012.9 |
| 20260505170703 | 53 | 229 | 8.7 | 13.0 | 0.00 | 0.04 | 0.04 | 52 | 1012.9 |
| 20260505165202 | 53 | 240 | 4.3 | 7.8 | 0.00 | 0.04 | 0.04 | 55 | 1012.9 |
| 20260505164703 | 53 | 254 | 2.6 | 8.7 | 0.00 | 0.04 | 0.04 | 55 | 1012.9 |
| 20260505163703 | 52 | 250 | 4.3 | 10.4 | 0.00 | 0.04 | 0.04 | 55 | 1013.0 |
| 20260505163203 | 51 | 239 | 4.3 | 8.7 | 0.00 | 0.04 | 0.04 | 54 | 1012.8 |
| 20260505162703 | 51 | 262 | 5.2 | 7.0 | 0.00 | 0.04 | 0.04 | 56 | 1012.8 |
| 20260505162203 | 51 | 234 | 2.6 | 6.1 | 0.00 | 0.04 | 0.04 | 50 | 1012.8 |
| 20260505160702 | 51 | 301 | 2.6 | 2.6 | 0.00 | 0.04 | 0.04 | 53 | 1012.6 |
| 20260505153205 | 50 | 274 | 2.6 | 6.1 | 0.00 | 0.04 | 0.04 | 59 | 1012.6 |
| 20260505152702 | 50 | 254 | 4.3 | 7.0 | 0.00 | 0.04 | 0.04 | 58 | 1012.4 |
| 20260505151703 | 49 | 292 | 1.7 | 5.2 | 0.00 | 0.04 | 0.04 | 56 | 1012.4 |
| 20260505151203 | 49 | 274 | 2.6 | 7.0 | 0.00 | 0.04 | 0.04 | 58 | 1012.4 |
| 20260505150703 | 50 | 247 | 3.5 | 7.0 | 0.00 | 0.04 | 0.04 | 62 | 1012.4 |
| 20260505140203 | 49 | 304 | 1.7 | 6.1 | 0.00 | 0.04 | 0.04 | 60 | 1011.6 |
| 20260505130203 | 45 | 235 | 0.9 | 1.7 | 0.00 | 0.04 | 0.04 | 80 | 1011.5 |
| 20260505123703 | 44 | 234 | 0.9 | 2.6 | 0.00 | 0.04 | 0.04 | 83 | 1011.9 |
| 20260505121703 | 42 | 214 | 0.0 | 0.0 | 0.00 | 0.04 | 0.04 | 84 | 1012.0 |
| 20260505120703 | 42 | 214 | 1.7 | 2.6 | 0.00 | 0.04 | 0.04 | 83 | 1012.1 |
| 20260505115203 | 41 | 202 | 0.0 | 0.0 | 0.00 | 0.04 | 0.04 | 86 | 1012.1 |
| 20260505114703 | 41 | 202 | 0.0 | 0.9 | 0.00 | 0.04 | 0.04 | 86 | 1012.1 |
| 20260505113703 | 40 | 202 | 0.9 | 1.7 | 0.00 | 0.04 | 0.04 | 85 | 1012.0 |
| 20260505113203 | 40 | 202 | 0.9 | 1.7 | 0.00 | 0.04 | 0.04 | 85 | 1011.8 |
| 20260505111204 | 41 | 202 | 0.0 | 0.0 | 0.00 | 0.04 | 0.04 | 85 | 1011.2 |
| 20260505110703 | 41 | 202 | 0.9 | 0.9 | 0.00 | 0.04 | 0.04 | 85 | 1011.2 |
| 20260505110203 | 41 | 202 | 0.9 | 0.9 | 0.00 | 0.04 | 0.04 | 84 | 1011.1 |
| 20260505101704 | 43 | 178 | 0.9 | 1.7 | 0.00 | 0.04 | 0.04 | 81 | 1010.5 |
| 20260505100203 | 43 | 178 | 1.7 | 2.6 | 0.00 | 0.04 | 0.04 | 77 | 1010.4 |
| 20260505094204 | 44 | 54 | 0.0 | 0.0 | 0.00 | 0.04 | 0.04 | 76 | 1009.2 |
| 20260505093703 | 44 | 54 | 0.0 | 0.0 | 0.00 | 0.04 | 0.04 | 78 | 1009.2 |
| 20260505091703 | 45 | 55 | 0.9 | 2.6 | 0.00 | 0.04 | 0.04 | 77 | 1009.4 |
| 20260505091203 | 45 | 76 | 1.7 | 2.6 | 0.00 | 0.04 | 0.04 | 75 | 1008.8 |
| 20260505090703 | 45 | 168 | 0.0 | 0.0 | 0.00 | 0.04 | 0.04 | 75 | 1010.0 |
| 20260505090203 | 45 | 168 | 0.0 | 0.0 | 0.00 | 0.04 | 0.04 | 76 | 1010.2 |
| 20260505085703 | 45 | 168 | 0.9 | 2.6 | 0.00 | 0.04 | 0.04 | 76 | 1010.7 |
| 20260505084703 | 45 | 121 | 0.0 | 2.6 | 0.01 | 0.04 | 0.04 | 73 | 1010.1 |
| 20260505084203 | 45 | 56 | 2.6 | 4.3 | 0.01 | 0.04 | 0.04 | 72 | 1008.4 |
| 20260505083704 | 45 | 60 | 3.5 | 5.2 | 0.02 | 0.04 | 0.04 | 70 | 1008.3 |
| 20260505082203 | 46 | 48 | 3.5 | 5.2 | 0.02 | 0.04 | 0.04 | 71 | 1008.0 |
| 20260505080203 | 46 | 307 | 0.0 | 1.7 | 0.03 | 0.04 | 0.04 | 71 | 1009.7 |
| 20260505075703 | 46 | 333 | 1.7 | 4.3 | 0.03 | 0.04 | 0.04 | 69 | 1009.2 |
| 20260505075203 | 46 | 46 | 2.6 | 4.3 | 0.04 | 0.04 | 0.04 | 67 | 1008.2 |
| 20260505074203 | 47 | 0 | 5.2 | 7.8 | 0.03 | 0.03 | 0.03 | 63 | 1008.2 |
| 20260505073204 | 48 | 350 | 4.3 | 8.7 | 0.02 | 0.02 | 0.02 | 60 | 1008.4 |
| 20260505072703 | 48 | 356 | 5.2 | 8.7 | 0.02 | 0.02 | 0.02 | 60 | 1008.1 |
| 20260505072203 | 48 | 4 | 7.8 | 12.2 | 0.02 | 0.02 | 0.02 | 60 | 1008.0 |
| 20260505070703 | 48 | 3 | 7.8 | 11.3 | 0.01 | 0.01 | 0.01 | 64 | 1007.6 |
| 20260505070203 | 48 | 355 | 6.1 | 12.2 | 0.01 | 0.01 | 0.01 | 64 | 1007.7 |
| 20260505065704 | 48 | 1 | 6.1 | 13.0 | 0.01 | 0.01 | 0.01 | 64 | 1007.6 |
| 20260505065203 | 49 | 13 | 7.8 | 13.9 | 0.00 | 0.00 | 0.00 | 60 | 1007.5 |
| 20260505064703 | 49 | 3 | 5.2 | 10.4 | 0.00 | 0.00 | 0.00 | 60 | 1008.0 |
| 20260505063203 | 50 | 351 | 6.1 | 12.2 | 0.00 | 0.00 | 0.00 | 51 | 1008.4 |
| 20260505062703 | 51 | 353 | 5.2 | 11.3 | 0.00 | 0.00 | 0.00 | 51 | 1008.2 |
| 20260505062203 | 51 | 334 | 6.1 | 11.3 | 0.00 | 0.00 | 0.00 | 49 | 1008.1 |
| 20260505061703 | 51 | 358 | 7.8 | 12.2 | 0.00 | 0.00 | 0.00 | 48 | 1007.5 |
| 20260505060703 | 51 | 5 | 10.4 | 15.6 | 0.00 | 0.00 | 0.00 | 46 | 1007.6 |
| 20260505055203 | 52 | 353 | 6.1 | 10.4 | 0.00 | 0.00 | 0.00 | 47 | 1007.9 |
| 20260505054203 | 52 | 8 | 6.1 | 10.4 | 0.00 | 0.00 | 0.00 | 47 | 1007.7 |
| 20260505053703 | 52 | 355 | 6.1 | 8.7 | 0.00 | 0.00 | 0.00 | 46 | 1007.4 |
| 20260505052703 | 53 | 346 | 6.1 | 10.4 | 0.00 | 0.00 | 0.00 | 45 | 1007.3 |
| 20260505052203 | 53 | 0 | 5.2 | 10.4 | 0.00 | 0.00 | 0.00 | 45 | 1007.2 |
| 20260505051703 | 53 | 5 | 6.1 | 10.4 | 0.00 | 0.00 | 0.00 | 45 | 1007.2 |
| 20260505051204 | 53 | 355 | 7.8 | 11.3 | 0.00 | 0.00 | 0.00 | 45 | 1007.1 |
| 20260505050703 | 53 | 3 | 7.0 | 10.4 | 0.00 | 0.00 | 0.00 | 45 | 1007.2 |
| 20260505041204 | 55 | 359 | 7.8 | 13.0 | 0.00 | 0.00 | 0.00 | 43 | 1006.9 |
| 20260505040703 | 55 | 0 | 6.1 | 11.3 | 0.00 | 0.00 | 0.00 | 42 | 1006.8 |
| 20260505035203 | 56 | 348 | 5.2 | 10.4 | 0.00 | 0.00 | 0.00 | 43 | 1006.5 |
| 20260505034203 | 56 | 330 | 4.3 | 8.7 | 0.00 | 0.00 | 0.00 | 44 | 1006.6 |
| 20260505033703 | 56 | 330 | 5.2 | 10.4 | 0.00 | 0.00 | 0.00 | 44 | 1006.6 |
| 20260505033203 | 56 | 317 | 5.2 | 10.4 | 0.00 | 0.00 | 0.00 | 44 | 1006.5 |
| 20260505032704 | 56 | 338 | 6.1 | 11.3 | 0.00 | 0.00 | 0.00 | 43 | 1006.5 |
| 20260505031703 | 57 | 334 | 7.8 | 13.0 | 0.00 | 0.00 | 0.00 | 42 | 1006.6 |
| 20260505023703 | 58 | 338 | 6.1 | 10.4 | 0.00 | 0.00 | 0.00 | 40 | 1005.8 |
| 20260505023203 | 58 | 342 | 6.1 | 10.4 | 0.00 | 0.00 | 0.00 | 41 | 1005.8 |
| 20260505021703 | 59 | 334 | 4.3 | 11.3 | 0.00 | 0.00 | 0.00 | 40 | 1005.3 |
| 20260505021203 | 59 | 339 | 6.1 | 10.4 | 0.00 | 0.00 | 0.00 | 38 | 1005.2 |
| 20260505015703 | 60 | 345 | 10.4 | 15.6 | 0.00 | 0.00 | 0.00 | 35 | 1004.6 |
| 20260505015203 | 61 | 351 | 4.3 | 10.4 | 0.00 | 0.00 | 0.00 | 35 | 1004.5 |
| 20260505014203 | 61 | 355 | 5.2 | 12.2 | 0.00 | 0.00 | 0.00 | 34 | 1004.4 |
| 20260505013203 | 62 | 335 | 7.0 | 12.2 | 0.00 | 0.00 | 0.00 | 33 | 1004.0 |
| 20260505011703 | 63 | 349 | 7.8 | 13.9 | 0.00 | 0.00 | 0.00 | 32 | 1003.5 |
| 20260505011203 | 64 | 352 | 9.6 | 13.9 | 0.00 | 0.00 | 0.00 | 32 | 1003.4 |
| 20260505010204 | 65 | 358 | 8.7 | 12.2 | 0.00 | 0.00 | 0.00 | 32 | 1003.3 |
| 20260505005703 | 66 | 349 | 10.4 | 14.8 | 0.00 | 0.00 | 0.00 | 31 | 1003.0 |
| 20260505005203 | 66 | 5 | 11.3 | 18.2 | 0.00 | 0.00 | 0.00 | 31 | 1002.9 |
| 20260505004204 | 67 | 336 | 8.7 | 17.4 | 0.00 | 0.00 | 0.00 | 32 | 1002.6 |
| 20260505002704 | 68 | 351 | 7.0 | 18.2 | 0.00 | 0.00 | 0.00 | 32 | 1002.5 |
| 20260505002204 | 69 | 355 | 7.8 | 17.4 | 0.00 | 0.00 | 0.00 | 32 | 1002.4 |
| 20260505001703 | 69 | 335 | 11.3 | 18.2 | 0.00 | 0.00 | 0.00 | 31 | 1002.4 |
| 20260504234704 | 72 | 344 | 9.6 | 14.8 | 0.00 | 0.00 | 0.00 | 30 | 1002.0 |
| 20260504233703 | 72 | 321 | 11.3 | 18.2 | 0.00 | 0.00 | 0.00 | 29 | 1001.8 |
| 20260504232704 | 73 | 342 | 7.8 | 15.6 | 0.00 | 0.00 | 0.00 | 29 | 1001.7 |
| 20260504231703 | 73 | 355 | 8.7 | 13.9 | 0.00 | 0.00 | 0.00 | 29 | 1001.4 |
| 20260504231204 | 73 | 333 | 10.4 | 20.0 | 0.00 | 0.00 | 0.00 | 29 | 1001.3 |
| 20260504230203 | 74 | 329 | 9.6 | 15.6 | 0.00 | 0.00 | 0.00 | 28 | 1001.3 |
| 20260504225704 | 75 | 2 | 10.4 | 14.8 | 0.00 | 0.00 | 0.00 | 29 | 1001.2 |
| 20260504224203 | 76 | 6 | 10.4 | 15.6 | 0.00 | 0.00 | 0.00 | 28 | 1001.0 |
| 20260504223703 | 76 | 359 | 10.4 | 17.4 | 0.00 | 0.00 | 0.00 | 28 | 1000.9 |
| 20260504222203 | 77 | 0 | 10.4 | 15.6 | 0.00 | 0.00 | 0.00 | 29 | 1000.6 |
| 20260504221704 | 77 | 339 | 8.7 | 14.8 | 0.00 | 0.00 | 0.00 | 32 | 1000.5 |
| 20260504220703 | 77 | 348 | 8.7 | 17.4 | 0.00 | 0.00 | 0.00 | 31 | 1000.4 |
| 20260504215704 | 78 | 353 | 7.8 | 14.8 | 0.00 | 0.00 | 0.00 | 31 | 1000.1 |
| 20260504214204 | 78 | 352 | 8.7 | 14.8 | 0.00 | 0.00 | 0.00 | 32 | 999.9 |
| 20260504213704 | 78 | 326 | 7.0 | 13.0 | 0.00 | 0.00 | 0.00 | 33 | 999.9 |
| 20260504212204 | 79 | 286 | 12.2 | 15.6 | 0.00 | 0.00 | 0.00 | 30 | 999.7 |
| 20260504211703 | 78 | 272 | 10.4 | 15.6 | 0.00 | 0.00 | 0.00 | 30 | 999.6 |
| 20260504211204 | 79 | 284 | 10.4 | 17.4 | 0.00 | 0.00 | 0.00 | 30 | 999.6 |
| 20260504205203 | 80 | 259 | 12.2 | 19.1 | 0.00 | 0.00 | 0.00 | 32 | 999.6 |
| 20260504204703 | 80 | 278 | 13.9 | 20.0 | 0.00 | 0.00 | 0.00 | 30 | 999.6 |
| 20260504204203 | 79 | 248 | 11.3 | 19.1 | 0.00 | 0.00 | 0.00 | 30 | 999.6 |
| 20260504203203 | 80 | 249 | 13.0 | 15.6 | 0.00 | 0.00 | 0.00 | 31 | 999.6 |
| 20260504202203 | 80 | 258 | 11.3 | 17.4 | 0.00 | 0.00 | 0.00 | 32 | 999.8 |
| 20260504201704 | 80 | 269 | 14.8 | 20.9 | 0.00 | 0.00 | 0.00 | 32 | 999.8 |